[[{"header":{"parameterUnit":"m.s-1","parameterCategory":1,"la1":30.2991,"la2":30.254,"lo1":-89.0895,"lo2":-89.0444,"dy":0.0017,"dx":0.0017,"nx":28,"ny":28,"refTime":"2023-11-01T21:00:00:Z","depth":0,"parameterNumber":2,"parameterNumberName":"U-component_of_WINDS"},"data":[0,0,0,0,0,0,0,0,0,0,0,0,0,0,0,0,0,0,0,0,0,0,0,0,0,0,0,0,0,0,0,0,0,0,0,0,0,0,0,0,0,0,0,0,0,0,0,0,0,0,0,0,0,0,0,0,0,0,-3.1466,-3.1467,0,-3.1584,-3.1585,-3.1587,-3.1519,-3.1516,-3.1512,-3.1509,-3.1631,-3.1637,-3.1643,0,0,0,0,0,0,0,0,0,0,0,0,0,-3.1183,-3.1188,-3.1466,-3.1468,-3.1469,-3.1584,-3.1585,-3.1587,-3.1519,-3.1515,-3.1511,-3.1508,-3.1629,-3.1636,-3.1644,0,0,0,0,0,0,0,0,0,0,0,0,0,-3.1304,-3.119,-3.1466,-3.1449,-3.1449,-3.1583,-3.1585,-3.1587,-3.152,-3.1515,-3.151,-3.1506,-3.1626,-3.1635,-3.1645,-3.1802,0,0,-3.1674,-3.1678,0,0,0,0,0,0,0,0,-3.1297,-3.1314,-3.145,-3.1451,-3.145,-3.1532,-3.153,-3.166,-3.1522,-3.1493,-3.1509,-3.1503,-3.1602,-3.1613,-3.1646,-3.1808,-3.1813,-3.1674,-3.168,-3.1684,-3.1687,0,0,0,0,0,0,0,-3.1289,-3.1309,-3.1513,-3.1452,-3.1452,-3.1436,-3.1448,-3.1554,-3.1574,-3.1495,-3.1491,-3.1506,-3.1601,-3.1637,-3.1648,-3.1815,-3.1674,-3.1683,-3.1688,-3.1692,-3.2112,-3.2118,0,0,0,0,0,0,-3.1281,-3.1302,-3.1509,-3.1516,-3.136,-3.1445,-3.1458,-3.1511,-3.1573,-3.1577,-3.151,-3.1502,-3.1623,-3.1637,-3.1652,-3.1841,-3.1684,-3.1693,-3.1698,-3.2107,-3.2114,-3.2119,0,0,0,0,0,0,-3.1276,-3.1301,-3.1504,-3.1408,-3.1433,-3.1455,-3.1515,-3.1516,-3.1551,-3.1583,-3.1587,-3.1543,-3.162,-3.1639,-3.1765,-3.1844,-3.1697,-3.1706,-3.21,-3.2109,-3.2117,-3.222,0,0,0,0,0,0,-3.1268,-3.1299,-3.1359,-3.141,-3.1438,-3.1616,-3.152,-3.1521,-3.1568,-3.1559,-3.1615,-3.162,-3.1617,-3.1752,-3.1775,-3.1855,-3.1713,-3.2093,-3.2104,-3.2114,-3.2209,-3.223,-3.2248,0,0,0,0,0,-3.1258,-3.1384,-3.1362,-3.1388,-3.1514,-3.162,-3.1636,-3.1631,-3.1575,-3.1635,-3.1656,-3.1618,-3.1832,-3.1765,-3.1791,-3.1874,-3.2089,-3.2101,-3.2113,-3.2201,-3.2226,-3.2248,0,0,0,0,0,0,-3.1342,-3.139,-3.1367,-3.1513,-3.1563,-3.1609,-3.1685,-3.1658,-3.1725,-3.1714,-3.1704,-3.1718,-3.1849,-3.1874,-3.1799,-3.203,-3.1951,-3.1969,-3.2009,-3.2034,-3.2053,-3.2044,-3.1721,0,0,0,0,0,-3.1377,-3.146,-3.1497,-3.1622,-3.1649,-3.1663,-3.1709,-3.17,-3.1752,-3.1773,-3.1802,-3.1854,-3.1932,-3.1984,-3.2059,-3.2213,-3.2224,-3.2283,-3.2302,-3.2318,-3.2334,-3.2417,-3.2443,-3.216,-3.216,-3.216,0,0,-3.1451,-3.1488,-3.154,-3.164,-3.1678,-3.1763,-3.1681,-3.1775,-3.1838,-3.1787,-3.1908,-3.1932,-3.1989,-3.2129,-3.2193,-3.2154,-3.2414,-3.2334,-3.2346,-3.2353,-3.2432,-3.2459,-3.2483,-3.2168,-3.2167,-3.2165,0,0,-3.163,-3.1666,-3.1774,-3.1813,-3.1871,-3.188,-3.1906,-3.1956,-3.197,-3.2091,-3.2054,-3.2129,-3.2265,-3.2307,-3.2346,-3.254,-3.2508,-3.2565,-3.2667,-3.2748,-3.277,-3.279,-3.2859,-3.2884,-3.258,-3.2581,-3.2581,0,-3.1715,-3.1842,-3.1833,-3.193,-3.1975,-3.1932,-3.2041,-3.208,-3.2159,-3.2191,-3.2147,-3.2316,-3.2351,-3.2501,-3.2549,-3.2582,-3.2611,-3.2558,-3.2768,-3.2787,-3.2806,-3.2871,-3.2897,-3.2587,-3.2586,-3.2586,-3.2585,0,-3.1943,-3.2032,-3.2112,-3.219,-3.2244,-3.2347,-3.2353,-3.2409,-3.2395,-3.2408,-3.2532,-3.2573,-3.2655,-3.269,-3.2678,-3.2838,-3.2812,-3.2768,-3.2689,-3.2839,-3.2901,-3.2926,-3.2596,-3.2594,-3.2592,-3.259,0,0,-3.2178,-3.2249,-3.2279,-3.2313,-3.2374,-3.2443,-3.2543,-3.2623,-3.267,-3.2727,-3.2811,-3.2926,-3.2886,-3.293,-3.2923,-3.2994,-3.3145,-3.2941,-3.2942,-3.2977,-3.3324,-3.3356,-3.3386,-3.3124,-3.3129,-3.3132,-3.3319,0,-3.236,-3.2536,-3.2531,-3.2694,-3.2776,-3.2736,-3.2824,-3.2871,-3.2886,-3.2957,-3.2974,-3.3056,-3.2996,-3.3023,-3.3091,-3.3112,-3.3214,-3.3098,-3.3202,-3.3206,-3.3188,-3.3418,-3.3453,-3.3626,-3.3343,-3.3347,-3.335,0,-3.2596,-3.266,-3.2832,-3.288,-3.2914,-3.2993,-3.3065,-3.3134,-3.3187,-3.3192,-3.3242,-3.3223,-3.3325,-3.3243,-3.3383,-3.3305,-3.3347,-3.3363,-3.337,-3.3379,-3.3287,-3.3433,-3.3682,-3.3708,-3.3388,-3.3385,-3.3382,0,-3.275,-3.2879,-3.2998,-3.3029,-3.3089,-3.3145,-3.3172,-3.322,-3.3268,-3.3331,-3.3362,-3.3436,-3.3477,-3.3535,-3.3536,-3.3477,-3.3678,-3.3596,-3.3686,-3.3686,-3.373,-3.3727,-3.3989,-3.3758,-3.3758,-3.3757,-3.3757,0,-3.2954,-3.306,-3.3068,-3.3141,-3.3259,-3.3252,-3.3369,-3.3391,-3.3434,-3.3511,-3.3481,-3.3554,-3.3551,-3.3625,-3.3627,-3.3743,-3.3762,-3.3769,-3.3768,-3.3772,-3.3771,-3.3799,-3.3787,-3.3764,-3.3762,-3.3761,-3.376,0,-3.3145,-3.3155,-3.3282,-3.3328,-3.3342,-3.3427,-3.3466,-3.3536,-3.3548,-3.3646,-3.3668,-3.3688,-3.3773,-3.378,-3.388,-3.3881,-3.4021,-3.4007,-3.4003,-3.4,-3.4089,-3.4081,-3.4378,-3.4416,-3.4161,-3.4164,-3.4166,0,-3.3274,-3.3355,-3.341,-3.3459,-3.349,-3.357,-3.3618,-3.3614,-3.3666,-3.3732,-3.3794,-3.3876,-3.3942,-3.4081,-3.4104,-3.4179,-3.4167,-3.4266,-3.4178,-3.4179,-3.4168,-3.4163,-3.417,-3.4283,-3.4286,-3.4288,-3.429,0,-3.3503,-3.3503,-3.3574,-3.3648,-3.3707,-3.3764,-3.3818,-3.386,-3.3862,-3.3922,-3.4009,-3.406,-3.4161,-3.4244,-3.4318,-3.4346,-3.4319,-3.4317,-3.4342,-3.4346,-3.434,-3.4344,-3.4049,-3.431,-3.4308,-3.4307,-3.4306,-3.4305,-3.3666,-3.3736,-3.3786,-3.3866,-3.3906,-3.3957,-3.4024,-3.4045,-3.4117,-3.4199,-3.4192,-3.4288,-3.4338,-3.4435,-3.4469,-3.4544,-3.451,-3.4546,-3.4555,-3.4564,-3.4573,-3.4328,-3.4558,-3.4557,-3.4556,-3.4556,-3.4556,0,-3.3892,-3.3922,-3.3996,-3.4072,-3.4135,-3.4104,-3.4162,-3.4216,-3.4301,-3.435,-3.4415,-3.4515,-3.4595,-3.4624,-3.4701,-3.4756,-3.4745,-3.4776,-3.4772,-3.4779,-3.4599,-3.4569,-3.4784,-3.4784,-3.4783,-3.4783,-3.4783,-3.4783,-3.4017,-3.4134,-3.414,-3.4276,-3.4305,-3.4399,-3.4434,-3.4481,-3.452,-3.4632,-3.4698,-3.4717,-3.4758,-3.4838,-3.491,-3.4916,-3.4946,-3.4982,-3.4983,-3.4815,-3.4792,-3.477,-3.4742,-3.4989,-3.4989,-3.5157,-3.5158,-3.516]},{"header":{"parameterUnit":"m.s-1","parameterCategory":1,"la1":30.2991,"la2":30.254,"lo1":-89.0895,"lo2":-89.0444,"dy":0.0017,"dx":0.0017,"nx":28,"ny":28,"refTime":"2023-11-01T21:00:00:Z","depth":0,"parameterNumber":3,"parameterNumberName":"V-component_of_WINDS"},"data":[0,0,0,0,0,0,0,0,0,0,0,0,0,0,0,0,0,0,0,0,0,0,0,0,0,0,0,0,0,0,0,0,0,0,0,0,0,0,0,0,0,0,0,0,0,0,0,0,0,0,0,0,0,0,0,0,0,0,-4.1628,-4.1628,0,-4.164,-4.164,-4.164,-4.1578,-4.1576,-4.1575,-4.1573,-4.1585,-4.1587,-4.1589,0,0,0,0,0,0,0,0,0,0,0,0,0,-4.1549,-4.1551,-4.1628,-4.1628,-4.1628,-4.164,-4.164,-4.164,-4.1578,-4.1576,-4.1574,-4.1572,-4.1584,-4.1587,-4.1589,0,0,0,0,0,0,0,0,0,0,0,0,0,-4.1575,-4.1552,-4.1628,-4.1599,-4.1596,-4.164,-4.164,-4.164,-4.1579,-4.1576,-4.1574,-4.1571,-4.1584,-4.1586,-4.1589,-4.1661,0,0,-4.1599,-4.16,0,0,0,0,0,0,0,0,-4.1573,-4.1578,-4.1603,-4.1601,-4.1598,-4.1605,-4.1617,-4.1647,-4.158,-4.1585,-4.1573,-4.157,-4.1594,-4.1596,-4.1604,-4.1662,-4.1662,-4.1599,-4.1601,-4.1602,-4.1603,0,0,0,0,0,0,0,-4.1572,-4.1577,-4.1632,-4.1603,-4.16,-4.1584,-4.1585,-4.1622,-4.1604,-4.1585,-4.158,-4.1583,-4.1592,-4.1601,-4.1604,-4.1663,-4.1599,-4.1601,-4.1603,-4.1604,-4.1777,-4.178,0,0,0,0,0,0,-4.1574,-4.1576,-4.1632,-4.1633,-4.1579,-4.1588,-4.1589,-4.1605,-4.1604,-4.1601,-4.1585,-4.158,-4.1597,-4.16,-4.1604,-4.1686,-4.1602,-4.1605,-4.1606,-4.1775,-4.1778,-4.1781,0,0,0,0,0,0,-4.1572,-4.158,-4.1632,-4.1603,-4.1608,-4.1592,-4.1611,-4.1607,-4.1616,-4.1604,-4.16,-4.1598,-4.1595,-4.16,-4.1647,-4.1685,-4.1606,-4.1609,-4.1771,-4.1776,-4.178,-4.1852,0,0,0,0,0,0,-4.157,-4.1579,-4.1607,-4.1604,-4.161,-4.1675,-4.1614,-4.1609,-4.1621,-4.1615,-4.1615,-4.1612,-4.1594,-4.1643,-4.165,-4.1688,-4.1611,-4.1768,-4.1773,-4.1778,-4.1846,-4.1858,-4.1868,0,0,0,0,0,-4.1568,-4.1628,-4.1609,-4.1616,-4.1645,-4.1678,-4.1681,-4.1658,-4.1625,-4.1652,-4.1644,-4.1612,-4.168,-4.1648,-4.1656,-4.1695,-4.1765,-4.1772,-4.1778,-4.1841,-4.1856,-4.1868,0,0,0,0,0,0,-4.1636,-4.1627,-4.1606,-4.1667,-4.1673,-4.1667,-4.1701,-4.1675,-4.1691,-4.1684,-4.1655,-4.1656,-4.1707,-4.1706,-4.167,-4.1763,-4.1717,-4.1725,-4.1762,-4.1776,-4.1787,-4.1786,-4.1613,0,0,0,0,0,-4.1658,-4.1686,-4.1676,-4.1731,-4.1735,-4.1718,-4.1731,-4.1713,-4.1718,-4.1721,-4.1716,-4.1723,-4.1745,-4.1761,-4.1781,-4.1846,-4.1844,-4.1877,-4.1888,-4.1897,-4.1904,-4.1936,-4.1949,-4.1802,-4.1802,-4.1802,0,0,-4.1705,-4.1703,-4.1722,-4.1744,-4.1747,-4.1776,-4.172,-4.1754,-4.1774,-4.1726,-4.177,-4.1767,-4.1772,-4.1827,-4.1852,-4.1828,-4.1944,-4.1905,-4.1913,-4.1914,-4.1944,-4.1957,-4.197,-4.1806,-4.1805,-4.1805,0,0,-4.1802,-4.1805,-4.1849,-4.1853,-4.1858,-4.1845,-4.1856,-4.1853,-4.1849,-4.1892,-4.1856,-4.188,-4.192,-4.1924,-4.1932,-4.203,-4.2,-4.2037,-4.2095,-4.2126,-4.2138,-4.2148,-4.2181,-4.2193,-4.2044,-4.2045,-4.2045,0,-4.1859,-4.1901,-4.1875,-4.191,-4.192,-4.1877,-4.1921,-4.1926,-4.1937,-4.1945,-4.1918,-4.1966,-4.1967,-4.2021,-4.2045,-4.2053,-4.2063,-4.2036,-4.2138,-4.2148,-4.2157,-4.2188,-4.2201,-4.2049,-4.2048,-4.2048,-4.2047,0,-4.1969,-4.1998,-4.2033,-4.2044,-4.2058,-4.2098,-4.2077,-4.2094,-4.2074,-4.2064,-4.2108,-4.2107,-4.2125,-4.2137,-4.2119,-4.2189,-4.2174,-4.2144,-4.2096,-4.2176,-4.2204,-4.2216,-4.2055,-4.2053,-4.2052,-4.2051,0,0,-4.2111,-4.2106,-4.2119,-4.2122,-4.2123,-4.2145,-4.2182,-4.2199,-4.2213,-4.2222,-4.2251,-4.2285,-4.2256,-4.2265,-4.2247,-4.2274,-4.2349,-4.224,-4.224,-4.2259,-4.2423,-4.2445,-4.2459,-4.233,-4.2332,-4.2334,-4.2422,0,-4.2205,-4.2267,-4.2244,-4.2307,-4.2332,-4.2291,-4.2322,-4.2326,-4.2318,-4.2338,-4.2328,-4.2352,-4.2313,-4.2318,-4.2343,-4.2334,-4.2381,-4.2328,-4.2355,-4.2356,-4.2353,-4.2474,-4.2497,-4.2581,-4.2433,-4.2435,-4.2437,0,-4.2323,-4.2335,-4.2401,-4.2395,-4.2405,-4.2434,-4.2446,-4.2466,-4.2469,-4.2461,-4.247,-4.2444,-4.2479,-4.2432,-4.2478,-4.2442,-4.2452,-4.2449,-4.2452,-4.2452,-4.24,-4.2476,-4.2607,-4.2619,-4.2454,-4.2453,-4.2452,0,-4.2417,-4.2451,-4.2493,-4.2497,-4.2493,-4.2513,-4.2512,-4.2512,-4.2523,-4.2535,-4.2541,-4.2557,-4.2565,-4.2577,-4.2556,-4.2525,-4.2605,-4.2557,-4.2597,-4.2598,-4.2615,-4.2614,-4.2748,-4.2625,-4.2625,-4.2624,-4.2624,0,-4.2524,-4.2565,-4.2535,-4.2561,-4.2605,-4.2578,-4.2622,-4.2616,-4.2617,-4.264,-4.2606,-4.2629,-4.2601,-4.2621,-4.2605,-4.2644,-4.2649,-4.2642,-4.2637,-4.2644,-4.2645,-4.2649,-4.2642,-4.2628,-4.2627,-4.2626,-4.2626,0,-4.2636,-4.2618,-4.2661,-4.2652,-4.2651,-4.2684,-4.2676,-4.2699,-4.2687,-4.2718,-4.2723,-4.2705,-4.2727,-4.2707,-4.2729,-4.2718,-4.2769,-4.2757,-4.2768,-4.2764,-4.2805,-4.28,-4.2944,-4.2961,-4.283,-4.2831,-4.2832,0,-4.2705,-4.2735,-4.2729,-4.2741,-4.2742,-4.2764,-4.2774,-4.2748,-4.276,-4.2765,-4.2787,-4.2805,-4.2819,-4.2855,-4.2843,-4.2859,-4.2845,-4.2895,-4.2847,-4.2853,-4.2843,-4.2841,-4.2843,-4.2904,-4.2906,-4.2907,-4.2908,0,-4.2827,-4.2816,-4.2832,-4.2845,-4.2858,-4.2867,-4.2873,-4.2885,-4.2858,-4.2874,-4.2895,-4.2905,-4.2925,-4.2943,-4.2955,-4.2953,-4.2926,-4.2923,-4.2933,-4.2939,-4.2943,-4.2939,-4.2792,-4.2919,-4.2918,-4.2917,-4.2917,-4.2916,-4.2918,-4.2942,-4.294,-4.2959,-4.296,-4.2966,-4.2987,-4.2977,-4.2994,-4.3008,-4.2992,-4.3017,-4.3017,-4.3029,-4.3031,-4.305,-4.3029,-4.3044,-4.3047,-4.3051,-4.3055,-4.2942,-4.3052,-4.3052,-4.3051,-4.3051,-4.3051,0,-4.3037,-4.3033,-4.305,-4.3059,-4.3073,-4.3045,-4.305,-4.3064,-4.3086,-4.3088,-4.3101,-4.3124,-4.3141,-4.3131,-4.3145,-4.3162,-4.315,-4.3167,-4.3164,-4.3164,-4.3074,-4.3063,-4.3176,-4.3176,-4.3176,-4.3176,-4.3176,-4.3176,-4.31,-4.3138,-4.3126,-4.3164,-4.316,-4.3183,-4.3188,-4.3193,-4.3194,-4.3221,-4.3234,-4.3227,-4.3224,-4.3237,-4.3251,-4.3247,-4.3253,-4.3274,-4.3266,-4.3183,-4.317,-4.3158,-4.3148,-4.3277,-4.3277,-4.3354,-4.3354,-4.3355]}]]